sat.trackr.live / text

‹ back to catalog

SNAP-3 JIMI

NORAD 40975 · 2015-058M

PAYLOAD ACTIVE UNKNOWN

§ Identity

Operator
Country
US
Launch date
2015-10-08
Launch site
AFWTR
Launch vehicle
Mass (kg)
RCS (m²)

Purposes: tech_demo

External: N2YO · Heavens-Above · Gunter

§ Orbital elements

Epoch: 2026-05-25T03:42:39.442752Z

Period
95.87 min
Inclination
64.7652°
Eccentricity
0.0105253
Mean motion
15.02038806 rev/d
Perigee alt
487.6 km
Apogee alt
633.6 km
Semi-major
6,938.7 km
B*
3.7149e-4
RAAN
292.6321°
Arg perigee
64.9353°
Mean anomaly
296.2645°
Rev number
11,076

§ Raw data

SNAP-3 JIMI1 40975U 15058M   26145.15462318  .00005325  00000+0  37149-3 0  99932 40975  64.7652 292.6321 0105253  64.9353 296.2645 15.02038806110760

JSON: /api/v1/satellites/40975 · /tle

For live sub-satellite position, see the globe view (requires WebGL).

§ Visibility from observer

Set your observer location to see the next 7 days of passes ≥ 10°. The values pass through the URL so the page stays shareable.

No JS? Fill the form by hand. The geolocation button needs JavaScript.